EST,Max TemperatureF,Mean TemperatureF,Min TemperatureF,Max Dew PointF,MeanDew PointF,Min DewpointF,Max Humidity, Mean Humidity, Min Humidity, Max Sea Level PressureIn, Mean Sea Level PressureIn, Min Sea Level PressureIn, Max VisibilityMiles, Mean VisibilityMiles, Min VisibilityMiles, Max Wind SpeedMPH, Mean Wind SpeedMPH, Max Gust SpeedMPH,PrecipitationIn, CloudCover, Events, WindDirDegrees
2013-2-1,18,13,8,10,6,-1,81,69,54,30.21,30.10,29.85,10,9,2,20,11,26,0.00,6,Snow,255
2013-2-2,22,16,9,16,9,3,81,74,67,30.15,30.00,29.91,10,6,1,14,8,20,0.00,7,Snow,249
2013-2-3,21,11,1,15,7,-3,85,75,58,29.97,29.90,29.81,10,8,0,16,4,25,0.00,6,Snow,262
2013-2-4,22,18,15,16,13,8,82,79,69,29.98,29.91,29.84,10,5,0,7,3,,0.00,8,Snow,111
2013-2-5,28,16,4,25,15,0,89,80,62,29.93,29.85,29.76,10,6,0,16,4,21,0.00,6,Snow,214
2013-2-6,31,20,10,21,13,7,86,67,48,30.25,30.17,29.95,10,10,3,14,6,18,0.00,3,Snow,227
2013-2-7,38,32,25,26,21,14,86,67,61,30.23,30.07,29.84,10,10,0,14,8,16,0.00,7,Snow,121
2013-2-8,29,22,15,27,19,11,91,78,54,30.32,30.04,29.79,10,6,0,21,9,33,0.00,5,Snow,355
2013-2-9,30,16,1,20,10,-4,90,73,43,30.41,30.33,30.23,10,8,0,12,4,,0.00,0,Fog-Snow,159
2013-2-10,39,29,19,35,23,16,89,75,55,30.23,29.98,29.65,10,9,2,21,11,28,0.00,5,Rain,139
2013-2-11,44,38,32,42,29,24,90,74,60,29.83,29.64,29.52,10,9,4,29,16,40,0.00,8,Rain,230
2013-2-12,32,30,28,23,21,20,74,69,63,30.02,29.94,29.85,10,10,10,20,13,28,0.00,8,,266
2013-2-13,39,32,26,24,22,20,79,69,52,29.90,29.78,29.70,10,10,7,10,6,,0.00,5,,233
2013-2-14,40,34,29,32,29,24,87,81,73,29.83,29.71,29.64,10,7,2,23,9,34,0.00,6,Rain-Snow,210
2013-2-15,32,26,19,25,14,9,76,60,44,30.09,30.00,29.83,10,10,7,16,11,25,0.00,7,Snow,295
2013-2-16,26,20,15,17,12,7,83,72,49,30.07,30.01,29.95,10,9,0,14,4,17,0.00,7,Snow,278
2013-2-17,24,16,8,13,4,-1,82,60,35,30.17,30.12,30.03,10,10,2,13,6,21,0.00,3,Snow,328
2013-2-18,45,30,14,34,18,7,70,56,42,30.15,29.89,29.56,10,10,10,20,10,32,0.00,3,Rain,154
2013-2-19,44,31,17,38,22,9,89,77,65,29.89,29.62,29.37,10,7,0,25,18,38,0.00,8,Rain-Snow,240
2013-2-20,23,19,15,14,10,6,73,65,55,30.21,30.08,29.90,10,9,3,18,15,29,0.00,8,Snow,293
2013-2-21,25,22,19,15,13,11,78,69,58,30.35,30.28,30.20,10,9,5,13,7,20,0.00,6,Snow,22
2013-2-22,33,27,21,32,23,16,95,84,76,30.21,29.97,29.85,10,7,0,20,11,25,0.00,8,Snow,133
2013-2-23,32,28,22,28,21,17,85,73,58,29.89,29.86,29.84,10,9,2,14,9,20,0.00,8,Snow,237
2013-2-24,36,29,22,24,21,18,87,73,53,30.12,29.99,29.87,10,8,1,16,6,21,0.00,8,Snow,261
2013-2-25,41,31,21,26,21,18,89,68,43,30.20,30.14,30.07,10,9,5,8,3,,0.00,4,,171
2013-2-26,35,32,28,32,25,19,93,75,59,30.09,29.79,29.49,10,6,0,18,9,26,0.00,4,Rain-Snow,75
2013-2-27,35,34,33,33,32,32,96,93,89,29.54,29.49,29.43,10,4,0,10,6,,0.00,8,Rain-Snow,176
2013-2-28,34,32,29,32,29,23,95,86,75,29.95,29.73,29.53,10,6,1,14,7,21,0.00,8,Rain-Snow,350